| time (UTC) | temp F | wind direction | speed knots | gust knots | rain 1hr in | rain 24hr in | rain mn in | humidity % | barometer mb |
| 20260507094503 | 36 | 36 | 0.9 | 3.5 | 0.00 | 0.00 | 0.00 | 41 | 1022.8 |
| 20260507094101 | 36 | 38 | 1.7 | 3.5 | 0.00 | 0.00 | 0.00 | 41 | 1022.8 |
| 20260507093501 | 36 | 55 | 0.0 | 1.7 | 0.00 | 0.00 | 0.00 | 40 | 1022.8 |
| 20260507093101 | 36 | 55 | 0.9 | 2.6 | 0.00 | 0.00 | 0.00 | 41 | 1022.9 |
| 20260507092550 | 36 | 55 | 1.7 | 2.6 | 0.00 | 0.00 | 0.00 | 41 | 1022.8 |
| 20260507092056 | 36 | 36 | 0.9 | 2.6 | 0.00 | 0.00 | 0.00 | 41 | 1022.8 |
| 20260507091604 | 36 | 36 | 0.9 | 3.5 | 0.00 | 0.00 | 0.00 | 41 | 1022.8 |
| 20260507091005 | 36 | 32 | 0.9 | 4.3 | 0.00 | 0.00 | 0.00 | 41 | 1022.7 |
| 20260507090514 | 36 | 28 | 1.7 | 4.3 | 0.00 | 0.00 | 0.00 | 41 | 1022.6 |
| 20260507090021 | 36 | 26 | 1.7 | 3.5 | 0.00 | 0.00 | 0.00 | 41 | 1022.8 |
| 20260507085524 | 36 | 24 | 0.9 | 3.5 | 0.00 | 0.00 | 0.00 | 40 | 1022.7 |
| 20260507085032 | 37 | 18 | 2.6 | 3.5 | 0.00 | 0.00 | 0.00 | 40 | 1022.5 |
| 20260507084538 | 37 | 347 | 0.9 | 2.6 | 0.00 | 0.00 | 0.00 | 40 | 1022.6 |
| 20260507084045 | 37 | 348 | 0.9 | 2.6 | 0.00 | 0.00 | 0.00 | 39 | 1022.6 |
| 20260507083537 | 38 | 306 | 0.9 | 1.7 | 0.00 | 0.00 | 0.00 | 39 | 1022.6 |
| 20260507083045 | 38 | 306 | 0.9 | 1.7 | 0.00 | 0.00 | 0.00 | 38 | 1022.6 |
| 20260507082550 | 38 | 306 | 0.9 | 1.7 | 0.00 | 0.00 | 0.00 | 38 | 1022.6 |
| 20260507082102 | 38 | 306 | 0.0 | 1.7 | 0.00 | 0.00 | 0.00 | 38 | 1022.5 |
| 20260507081549 | 38 | 306 | 0.0 | 1.7 | 0.00 | 0.00 | 0.00 | 38 | 1022.6 |
| 20260507081058 | 38 | 306 | 0.0 | 1.7 | 0.00 | 0.00 | 0.00 | 38 | 1022.5 |
| 20260507080606 | 38 | 286 | 0.0 | 2.6 | 0.00 | 0.00 | 0.00 | 38 | 1022.5 |
| 20260507080005 | 39 | 286 | 1.7 | 2.6 | 0.00 | 0.00 | 0.00 | 38 | 1022.4 |
| 20260507075601 | 39 | 336 | 0.9 | 1.7 | 0.00 | 0.00 | 0.00 | 38 | 1022.5 |
| 20260507075005 | 39 | 336 | 0.0 | 1.7 | 0.00 | 0.00 | 0.00 | 37 | 1022.5 |
| 20260507074601 | 39 | 355 | 0.0 | 2.6 | 0.00 | 0.00 | 0.00 | 37 | 1022.4 |
| 20260507074051 | 39 | 355 | 1.7 | 2.6 | 0.00 | 0.00 | 0.00 | 37 | 1022.5 |
| 20260507073557 | 40 | 338 | 0.9 | 1.7 | 0.00 | 0.00 | 0.00 | 36 | 1022.5 |
| 20260507073048 | 40 | 328 | 0.0 | 1.7 | 0.00 | 0.00 | 0.00 | 36 | 1022.6 |
| 20260507072539 | 40 | 311 | 0.9 | 2.6 | 0.00 | 0.00 | 0.00 | 36 | 1022.7 |
| 20260507072049 | 40 | 12 | 0.9 | 3.5 | 0.00 | 0.00 | 0.00 | 36 | 1022.6 |
| 20260507071608 | 40 | 9 | 2.6 | 3.5 | 0.00 | 0.00 | 0.00 | 36 | 1022.5 |
| 20260507071102 | 41 | 15 | 1.7 | 7.0 | 0.00 | 0.00 | 0.00 | 36 | 1022.5 |
| 20260507070551 | 41 | 10 | 3.5 | 7.8 | 0.00 | 0.00 | 0.00 | 36 | 1022.4 |
| 20260507070059 | 41 | 24 | 4.3 | 7.8 | 0.00 | 0.00 | 0.00 | 36 | 1022.4 |
| 20260507065608 | 41 | 19 | 3.5 | 7.0 | 0.00 | 0.00 | 0.00 | 35 | 1022.3 |
| 20260507065008 | 41 | 355 | 3.5 | 7.0 | 0.00 | 0.00 | 0.00 | 36 | 1022.4 |
| 20260507064600 | 41 | 16 | 2.6 | 5.2 | 0.00 | 0.00 | 0.00 | 35 | 1022.5 |
| 20260507064005 | 41 | 36 | 1.7 | 5.2 | 0.00 | 0.00 | 0.00 | 35 | 1022.5 |
| 20260507063558 | 41 | 49 | 2.6 | 5.2 | 0.00 | 0.00 | 0.00 | 35 | 1022.5 |
| 20260507063048 | 41 | 51 | 2.6 | 5.2 | 0.00 | 0.00 | 0.00 | 35 | 1022.4 |
| 20260507062555 | 41 | 33 | 2.6 | 4.3 | 0.00 | 0.00 | 0.00 | 35 | 1022.4 |
| 20260507062048 | 41 | 47 | 2.6 | 4.3 | 0.00 | 0.00 | 0.00 | 35 | 1022.4 |
| 20260507061559 | 41 | 38 | 0.9 | 3.5 | 0.00 | 0.00 | 0.00 | 34 | 1022.4 |
| 20260507061100 | 42 | 18 | 1.7 | 3.5 | 0.00 | 0.00 | 0.00 | 34 | 1022.3 |
| 20260507060502 | 42 | 5 | 2.6 | 3.5 | 0.00 | 0.00 | 0.00 | 34 | 1022.2 |
| 20260507060007 | 43 | 344 | 1.7 | 2.6 | 0.00 | 0.00 | 0.00 | 33 | 1022.2 |
| 20260507055603 | 43 | 306 | 0.9 | 2.6 | 0.00 | 0.00 | 0.00 | 33 | 1022.3 |
| 20260507055005 | 43 | 319 | 1.7 | 4.3 | 0.00 | 0.00 | 0.00 | 33 | 1022.1 |
| 20260507054602 | 44 | 317 | 2.6 | 4.3 | 0.00 | 0.00 | 0.00 | 33 | 1022.1 |
| 20260507054103 | 44 | 323 | 2.6 | 4.3 | 0.00 | 0.00 | 0.00 | 33 | 1022.0 |
| 20260507053505 | 44 | 322 | 1.7 | 3.5 | 0.00 | 0.00 | 0.00 | 32 | 1022.0 |
| 20260507053129 | 45 | 302 | 1.7 | 6.1 | 0.00 | 0.00 | 0.00 | 32 | 1022.0 |
| 20260507052501 | 45 | 303 | 3.5 | 5.2 | 0.00 | 0.00 | 0.00 | 32 | 1022.0 |
| 20260507052056 | 45 | 325 | 3.5 | 5.2 | 0.00 | 0.00 | 0.00 | 32 | 1022.0 |
| 20260507051555 | 45 | 302 | 2.6 | 7.0 | 0.00 | 0.00 | 0.00 | 32 | 1021.8 |
| 20260507051054 | 45 | 300 | 4.3 | 7.0 | 0.00 | 0.00 | 0.00 | 32 | 1021.8 |
| 20260507050547 | 46 | 302 | 4.3 | 7.0 | 0.00 | 0.00 | 0.00 | 31 | 1021.8 |
| 20260507050052 | 46 | 309 | 4.3 | 7.8 | 0.00 | 0.00 | 0.00 | 31 | 1021.7 |
| 20260507045558 | 46 | 303 | 4.3 | 7.8 | 0.00 | 0.00 | 0.00 | 31 | 1021.7 |
| 20260507045004 | 46 | 299 | 5.2 | 7.8 | 0.00 | 0.00 | 0.00 | 31 | 1021.7 |
| 20260507044558 | 47 | 307 | 4.3 | 7.8 | 0.00 | 0.00 | 0.00 | 30 | 1021.6 |
| 20260507044104 | 47 | 319 | 4.3 | 7.8 | 0.00 | 0.00 | 0.00 | 30 | 1021.6 |
| 20260507043555 | 47 | 319 | 3.5 | 7.0 | 0.00 | 0.00 | 0.00 | 30 | 1021.6 |
| 20260507043101 | 47 | 321 | 4.3 | 9.6 | 0.00 | 0.00 | 0.00 | 30 | 1021.6 |
| 20260507042552 | 47 | 300 | 5.2 | 9.6 | 0.00 | 0.00 | 0.00 | 30 | 1021.5 |
| 20260507042043 | 47 | 333 | 5.2 | 8.7 | 0.00 | 0.00 | 0.00 | 30 | 1021.4 |
| 20260507041552 | 47 | 317 | 4.3 | 7.8 | 0.00 | 0.00 | 0.00 | 30 | 1021.4 |
| 20260507041059 | 47 | 321 | 4.3 | 7.8 | 0.00 | 0.00 | 0.00 | 30 | 1021.4 |
| 20260507040605 | 48 | 302 | 3.5 | 7.8 | 0.00 | 0.00 | 0.00 | 29 | 1021.3 |
| 20260507040055 | 48 | 319 | 5.2 | 7.8 | 0.00 | 0.00 | 0.00 | 29 | 1021.3 |
| 20260507035604 | 48 | 313 | 5.2 | 7.8 | 0.00 | 0.00 | 0.00 | 28 | 1021.3 |
| 20260507035004 | 49 | 316 | 5.2 | 9.6 | 0.00 | 0.00 | 0.00 | 28 | 1021.2 |
| 20260507034527 | 49 | 299 | 5.2 | 12.2 | 0.00 | 0.00 | 0.00 | 28 | 1021.1 |
| 20260507034002 | 49 | 315 | 7.0 | 12.2 | 0.00 | 0.00 | 0.00 | 27 | 1021.0 |
| 20260507033511 | 49 | 295 | 7.8 | 12.2 | 0.00 | 0.00 | 0.00 | 27 | 1020.9 |
| 20260507033006 | 49 | 304 | 7.8 | 11.3 | 0.00 | 0.00 | 0.00 | 27 | 1020.8 |
| 20260507032509 | 50 | 317 | 7.8 | 12.2 | 0.00 | 0.00 | 0.00 | 27 | 1020.8 |
| 20260507032102 | 50 | 320 | 7.8 | 12.2 | 0.00 | 0.00 | 0.00 | 26 | 1020.8 |
| 20260507031555 | 50 | 295 | 8.7 | 12.2 | 0.00 | 0.00 | 0.00 | 26 | 1020.8 |
| 20260507031101 | 50 | 321 | 6.1 | 11.3 | 0.00 | 0.00 | 0.00 | 25 | 1020.7 |
| 20260507030551 | 51 | 319 | 7.0 | 12.2 | 0.00 | 0.00 | 0.00 | 25 | 1020.6 |
| 20260507030058 | 51 | 311 | 7.8 | 12.2 | 0.00 | 0.00 | 0.00 | 24 | 1020.6 |
| 20260507025548 | 51 | 326 | 7.0 | 12.2 | 0.00 | 0.00 | 0.00 | 24 | 1020.5 |
| 20260507025039 | 52 | 317 | 7.8 | 13.0 | 0.00 | 0.00 | 0.00 | 23 | 1020.5 |
| 20260507024550 | 52 | 329 | 8.7 | 13.0 | 0.00 | 0.00 | 0.00 | 23 | 1020.5 |
| 20260507024038 | 52 | 329 | 8.7 | 13.9 | 0.00 | 0.00 | 0.00 | 23 | 1020.3 |
| 20260507023543 | 52 | 295 | 9.6 | 13.9 | 0.00 | 0.00 | 0.00 | 22 | 1020.4 |
| 20260507023048 | 52 | 342 | 7.0 | 13.0 | 0.00 | 0.00 | 0.00 | 22 | 1020.3 |
| 20260507022557 | 52 | 271 | 8.7 | 15.6 | 0.00 | 0.00 | 0.00 | 22 | 1020.4 |
| 20260507022047 | 53 | 317 | 8.7 | 17.4 | 0.00 | 0.00 | 0.00 | 22 | 1020.1 |
| 20260507021553 | 53 | 311 | 8.7 | 15.6 | 0.00 | 0.00 | 0.00 | 22 | 1020.0 |
| 20260507021100 | 53 | 322 | 9.6 | 15.6 | 0.00 | 0.00 | 0.00 | 21 | 1019.9 |
| 20260507020502 | 54 | 317 | 9.6 | 14.8 | 0.00 | 0.00 | 0.00 | 21 | 1019.8 |
| 20260507020006 | 54 | 321 | 10.4 | 13.9 | 0.00 | 0.00 | 0.00 | 22 | 1019.9 |
| 20260507015559 | 54 | 310 | 9.6 | 14.8 | 0.00 | 0.00 | 0.00 | 21 | 1019.9 |
| 20260507015004 | 55 | 317 | 9.6 | 14.8 | 0.00 | 0.00 | 0.00 | 22 | 1019.9 |
| 20260507014612 | 55 | 299 | 7.0 | 14.8 | 0.00 | 0.00 | 0.00 | 22 | 1019.8 |
| 20260507014103 | 56 | 315 | 8.7 | 14.8 | 0.00 | 0.00 | 0.00 | 22 | 1019.8 |
| 20260507013505 | 56 | 330 | 7.0 | 13.9 | 0.00 | 0.00 | 0.00 | 22 | 1019.7 |
| 20260507013103 | 56 | 333 | 9.6 | 13.0 | 0.00 | 0.00 | 0.00 | 22 | 1019.6 |
| 20260507012508 | 57 | 321 | 7.8 | 15.6 | 0.00 | 0.00 | 0.00 | 22 | 1019.5 |
| 20260507012100 | 57 | 316 | 8.7 | 15.6 | 0.00 | 0.00 | 0.00 | 22 | 1019.5 |
| 20260507011504 | 57 | 333 | 7.8 | 16.5 | 0.00 | 0.00 | 0.00 | 22 | 1019.3 |
| 20260507011056 | 57 | 340 | 8.7 | 16.5 | 0.00 | 0.00 | 0.00 | 22 | 1019.4 |
| 20260507010547 | 57 | 340 | 10.4 | 17.4 | 0.00 | 0.00 | 0.00 | 21 | 1019.3 |
| 20260507010104 | 57 | 355 | 11.3 | 17.4 | 0.00 | 0.00 | 0.00 | 21 | 1019.2 |
| 20260507005545 | 58 | 325 | 9.6 | 17.4 | 0.00 | 0.00 | 0.00 | 22 | 1019.1 |
| 20260507005053 | 58 | 331 | 11.3 | 17.4 | 0.00 | 0.00 | 0.00 | 21 | 1019.1 |
| 20260507004612 | 58 | 323 | 12.2 | 17.4 | 0.00 | 0.00 | 0.00 | 21 | 1019.0 |
| 20260507004105 | 58 | 342 | 11.3 | 19.1 | 0.00 | 0.00 | 0.00 | 21 | 1018.9 |
| 20260507003555 | 58 | 337 | 12.2 | 19.1 | 0.00 | 0.00 | 0.00 | 22 | 1018.9 |
| 20260507003105 | 58 | 15 | 10.4 | 18.2 | 0.00 | 0.00 | 0.00 | 22 | 1018.9 |
| 20260507002555 | 58 | 319 | 12.2 | 17.4 | 0.00 | 0.00 | 0.00 | 22 | 1019.0 |
| 20260507002101 | 58 | 355 | 11.3 | 18.2 | 0.00 | 0.00 | 0.00 | 21 | 1019.0 |
| 20260507001555 | 58 | 311 | 11.3 | 19.1 | 0.00 | 0.00 | 0.00 | 20 | 1018.9 |
| 20260507001043 | 59 | 307 | 12.2 | 18.2 | 0.00 | 0.00 | 0.00 | 18 | 1018.8 |
| 20260507000550 | 59 | 324 | 9.6 | 20.9 | 0.00 | 0.00 | 0.00 | 21 | 1018.7 |
| 20260507000057 | 59 | 348 | 13.0 | 20.9 | 0.00 | 0.00 | 0.00 | 21 | 1018.6 |
| 20260506235605 | 59 | 294 | 13.0 | 23.5 | 0.00 | 0.00 | 0.00 | 21 | 1018.6 |
| 20260506235054 | 59 | 340 | 13.9 | 23.5 | 0.00 | 0.00 | 0.00 | 22 | 1018.5 |
| 20260506234603 | 59 | 308 | 14.8 | 22.6 | 0.00 | 0.00 | 0.00 | 20 | 1018.4 |
| 20260506234055 | 59 | 340 | 13.9 | 21.7 | 0.00 | 0.00 | 0.00 | 19 | 1018.3 |
| 20260506233600 | 59 | 333 | 12.2 | 22.6 | 0.00 | 0.00 | 0.00 | 22 | 1018.2 |
| 20260506233055 | 59 | 340 | 13.9 | 26.1 | 0.00 | 0.00 | 0.00 | 21 | 1018.2 |
| 20260506232555 | 59 | 349 | 15.6 | 26.1 | 0.00 | 0.00 | 0.00 | 22 | 1018.2 |
| 20260506232102 | 60 | 321 | 12.2 | 21.7 | 0.00 | 0.00 | 0.00 | 23 | 1018.3 |
| 20260506231553 | 59 | 336 | 13.9 | 22.6 | 0.00 | 0.00 | 0.00 | 22 | 1018.2 |
| 20260506231105 | 60 | 303 | 13.9 | 22.6 | 0.00 | 0.00 | 0.00 | 23 | 1018.1 |
| 20260506230552 | 60 | 344 | 14.8 | 21.7 | 0.00 | 0.00 | 0.00 | 24 | 1018.1 |
| 20260506230058 | 60 | 319 | 12.2 | 22.6 | 0.00 | 0.00 | 0.00 | 23 | 1018.1 |
| 20260506225550 | 60 | 15 | 10.4 | 22.6 | 0.00 | 0.00 | 0.00 | 25 | 1018.0 |
| 20260506225039 | 60 | 327 | 13.9 | 23.5 | 0.00 | 0.00 | 0.00 | 25 | 1018.0 |
| 20260506224547 | 60 | 324 | 13.0 | 23.5 | 0.00 | 0.00 | 0.00 | 25 | 1017.9 |
| 20260506224039 | 60 | 360 | 13.0 | 22.6 | 0.00 | 0.00 | 0.00 | 24 | 1017.9 |
| 20260506223545 | 61 | 297 | 11.3 | 22.6 | 0.00 | 0.00 | 0.00 | 21 | 1017.6 |
| 20260506223049 | 61 | 311 | 12.2 | 24.3 | 0.00 | 0.00 | 0.00 | 19 | 1017.8 |
| 20260506222558 | 61 | 313 | 14.8 | 23.5 | 0.00 | 0.00 | 0.00 | 20 | 1017.6 |
| 20260506222047 | 61 | 338 | 13.0 | 20.9 | 0.00 | 0.00 | 0.00 | 24 | 1017.8 |
| 20260506221555 | 60 | 307 | 12.2 | 20.9 | 0.00 | 0.00 | 0.00 | 24 | 1017.7 |
| 20260506221100 | 60 | 311 | 13.9 | 20.0 | 0.00 | 0.00 | 0.00 | 26 | 1017.7 |
| 20260506220502 | 60 | 348 | 13.0 | 20.0 | 0.00 | 0.00 | 0.00 | 26 | 1017.7 |
| 20260506220057 | 60 | 317 | 12.2 | 21.7 | 0.00 | 0.00 | 0.00 | 28 | 1017.7 |
| 20260506215604 | 61 | 308 | 11.3 | 21.7 | 0.00 | 0.00 | 0.00 | 28 | 1017.8 |
| 20260506215054 | 61 | 342 | 12.2 | 22.6 | 0.00 | 0.00 | 0.00 | 26 | 1017.8 |
| 20260506214551 | 60 | 301 | 14.8 | 26.9 | 0.00 | 0.00 | 0.00 | 25 | 1017.7 |
| 20260506214052 | 60 | 327 | 14.8 | 26.9 | 0.00 | 0.00 | 0.00 | 25 | 1017.7 |
| 20260506213558 | 59 | 302 | 10.4 | 20.0 | 0.00 | 0.00 | 0.00 | 26 | 1017.7 |
| 20260506213104 | 59 | 293 | 13.0 | 25.2 | 0.00 | 0.00 | 0.00 | 26 | 1017.8 |
| 20260506212555 | 59 | 296 | 15.6 | 25.2 | 0.00 | 0.00 | 0.00 | 27 | 1017.7 |
| 20260506212046 | 58 | 306 | 13.9 | 22.6 | 0.00 | 0.00 | 0.00 | 30 | 1017.7 |
| 20260506211553 | 57 | 332 | 16.5 | 24.3 | 0.00 | 0.00 | 0.00 | 30 | 1017.8 |
| 20260506211043 | 57 | 320 | 14.8 | 24.3 | 0.00 | 0.00 | 0.00 | 30 | 1017.8 |
| 20260506210532 | 57 | 315 | 12.2 | 20.9 | 0.00 | 0.00 | 0.00 | 30 | 1017.8 |
| 20260506210041 | 57 | 319 | 14.8 | 20.9 | 0.00 | 0.00 | 0.00 | 32 | 1017.8 |
| 20260506205547 | 57 | 311 | 10.4 | 20.9 | 0.00 | 0.00 | 0.00 | 32 | 1017.7 |
| 20260506205058 | 57 | 300 | 13.0 | 20.9 | 0.00 | 0.00 | 0.00 | 34 | 1017.7 |
| 20260506204550 | 57 | 291 | 9.6 | 19.1 | 0.00 | 0.00 | 0.00 | 35 | 1017.8 |
| 20260506204052 | 57 | 296 | 8.7 | 18.2 | 0.00 | 0.00 | 0.00 | 36 | 1017.7 |
| 20260506203546 | 57 | 302 | 12.2 | 18.2 | 0.00 | 0.00 | 0.00 | 35 | 1017.8 |
| 20260506203033 | 57 | 319 | 10.4 | 18.2 | 0.00 | 0.00 | 0.00 | 35 | 1017.8 |
| 20260506202541 | 58 | 306 | 11.3 | 21.7 | 0.00 | 0.00 | 0.00 | 34 | 1017.9 |
| 20260506202047 | 58 | 297 | 8.7 | 20.0 | 0.00 | 0.00 | 0.00 | 34 | 1017.7 |
| 20260506201555 | 57 | 291 | 12.2 | 20.0 | 0.00 | 0.00 | 0.00 | 35 | 1017.7 |
| 20260506201100 | 57 | 330 | 13.0 | 19.1 | 0.00 | 0.00 | 0.00 | 35 | 1017.7 |
| 20260506200504 | 57 | 311 | 13.0 | 20.0 | 0.00 | 0.00 | 0.00 | 35 | 1017.8 |
| 20260506200105 | 58 | 315 | 12.2 | 20.0 | 0.00 | 0.00 | 0.00 | 34 | 1017.8 |
| 20260506195604 | 58 | 285 | 13.0 | 22.6 | 0.00 | 0.00 | 0.00 | 35 | 1017.6 |
| 20260506195057 | 58 | 312 | 14.8 | 22.6 | 0.00 | 0.00 | 0.00 | 33 | 1017.6 |
| 20260506194608 | 58 | 319 | 15.6 | 24.3 | 0.00 | 0.00 | 0.00 | 31 | 1017.6 |
| 20260506194004 | 58 | 322 | 16.5 | 24.3 | 0.00 | 0.00 | 0.00 | 29 | 1017.6 |
| 20260506193559 | 59 | 325 | 13.9 | 24.3 | 0.00 | 0.00 | 0.00 | 31 | 1017.7 |
| 20260506193002 | 59 | 287 | 12.2 | 28.7 | 0.00 | 0.00 | 0.00 | 30 | 1017.6 |
| 20260506192557 | 58 | 339 | 14.8 | 28.7 | 0.00 | 0.00 | 0.00 | 34 | 1017.5 |
| 20260506192051 | 58 | 302 | 13.0 | 22.6 | 0.00 | 0.00 | 0.00 | 33 | 1017.4 |
| 20260506191607 | 58 | 325 | 13.0 | 22.6 | 0.00 | 0.00 | 0.00 | 34 | 1017.6 |
| 20260506191105 | 58 | 333 | 13.9 | 22.6 | 0.00 | 0.00 | 0.00 | 35 | 1017.5 |
| 20260506190505 | 57 | 309 | 11.3 | 20.9 | 0.00 | 0.00 | 0.00 | 39 | 1017.5 |
| 20260506190100 | 55 | 323 | 13.0 | 24.3 | 0.00 | 0.00 | 0.00 | 42 | 1017.7 |
| 20260506185501 | 54 | 310 | 13.0 | 20.0 | 0.00 | 0.00 | 0.00 | 44 | 1017.8 |
| 20260506185058 | 53 | 360 | 12.2 | 20.0 | 0.00 | 0.00 | 0.00 | 46 | 1017.9 |
| 20260506184551 | 51 | 349 | 13.9 | 24.3 | 0.00 | 0.00 | 0.00 | 49 | 1018.0 |
| 20260506184056 | 50 | 320 | 13.9 | 25.2 | 0.00 | 0.00 | 0.00 | 52 | 1018.1 |
| 20260506183602 | 50 | 338 | 14.8 | 25.2 | 0.00 | 0.00 | 0.00 | 52 | 1018.4 |
| 20260506183006 | 50 | 341 | 17.4 | 28.7 | 0.00 | 0.00 | 0.00 | 51 | 1018.6 |
| 20260506182602 | 51 | 316 | 17.4 | 30.4 | 0.00 | 0.00 | 0.00 | 50 | 1018.6 |
| 20260506182002 | 51 | 344 | 18.2 | 31.3 | 0.00 | 0.00 | 0.00 | 50 | 1018.4 |
| 20260506181602 | 51 | 5 | 17.4 | 31.3 | 0.00 | 0.00 | 0.00 | 51 | 1018.5 |
| 20260506181104 | 51 | 338 | 19.1 | 28.7 | 0.00 | 0.00 | 0.00 | 51 | 1018.3 |
| 20260506180507 | 53 | 342 | 15.6 | 30.4 | 0.00 | 0.00 | 0.00 | 50 | 1018.2 |
| 20260506180116 | 54 | 323 | 17.4 | 28.7 | 0.00 | 0.00 | 0.00 | 48 | 1018.1 |
| 20260506175558 | 53 | 319 | 19.1 | 28.7 | 0.00 | 0.00 | 0.00 | 48 | 1017.9 |
| 20260506175045 | 54 | 311 | 18.2 | 29.5 | 0.00 | 0.00 | 0.00 | 48 | 1017.9 |
| 20260506174553 | 54 | 329 | 13.0 | 31.3 | 0.00 | 0.00 | 0.00 | 44 | 1017.8 |
| 20260506174059 | 55 | 306 | 19.1 | 31.3 | 0.00 | 0.00 | 0.00 | 43 | 1017.5 |
| 20260506173502 | 57 | 283 | 12.2 | 25.2 | 0.00 | 0.00 | 0.00 | 36 | 1017.4 |
| 20260506173134 | 58 | 282 | 11.3 | 20.0 | 0.00 | 0.00 | 0.00 | 35 | 1016.9 |
| 20260506172500 | 59 | 279 | 10.4 | 18.2 | 0.00 | 0.00 | 0.00 | 34 | 1017.0 |
| 20260506172056 | 58 | 289 | 9.6 | 18.2 | 0.00 | 0.00 | 0.00 | 35 | 1016.8 |
| 20260506171547 | 57 | 300 | 7.0 | 13.0 | 0.00 | 0.00 | 0.00 | 37 | 1016.9 |
| 20260506171055 | 58 | 273 | 7.0 | 10.4 | 0.00 | 0.00 | 0.00 | 38 | 1016.9 |
| 20260506170548 | 58 | 278 | 4.3 | 12.2 | 0.00 | 0.00 | 0.00 | 37 | 1016.9 |
| 20260506170052 | 58 | 226 | 6.1 | 12.2 | 0.00 | 0.00 | 0.00 | 38 | 1016.8 |
| 20260506165542 | 57 | 236 | 4.3 | 13.9 | 0.00 | 0.00 | 0.00 | 39 | 1016.9 |
| 20260506165033 | 57 | 299 | 9.6 | 15.6 | 0.00 | 0.00 | 0.00 | 40 | 1016.8 |
| 20260506164540 | 56 | 281 | 7.0 | 15.6 | 0.00 | 0.00 | 0.00 | 40 | 1016.8 |
| 20260506164048 | 56 | 334 | 7.0 | 11.3 | 0.00 | 0.00 | 0.00 | 40 | 1016.8 |
| 20260506163555 | 55 | 229 | 7.0 | 16.5 | 0.00 | 0.00 | 0.00 | 41 | 1017.0 |
| 20260506163047 | 55 | 296 | 6.1 | 16.5 | 0.00 | 0.00 | 0.00 | 43 | 1016.9 |
| 20260506162555 | 55 | 242 | 5.2 | 8.7 | 0.00 | 0.00 | 0.00 | 44 | 1017.1 |
| 20260506162059 | 54 | 292 | 3.5 | 7.8 | 0.00 | 0.00 | 0.00 | 45 | 1017.0 |
| 20260506161502 | 54 | 242 | 3.5 | 9.6 | 0.00 | 0.00 | 0.00 | 46 | 1017.1 |
| 20260506161058 | 53 | 242 | 5.2 | 10.4 | 0.00 | 0.00 | 0.00 | 47 | 1017.1 |
| 20260506160502 | 53 | 231 | 7.0 | 11.3 | 0.00 | 0.00 | 0.00 | 46 | 1017.2 |
| 20260506160057 | 53 | 296 | 3.5 | 11.3 | 0.00 | 0.00 | 0.00 | 47 | 1017.2 |
| 20260506155604 | 52 | 257 | 6.1 | 11.3 | 0.00 | 0.00 | 0.00 | 46 | 1017.2 |
| 20260506155055 | 52 | 240 | 6.1 | 11.3 | 0.00 | 0.00 | 0.00 | 46 | 1017.2 |
| 20260506154601 | 51 | 267 | 4.3 | 10.4 | 0.00 | 0.00 | 0.00 | 48 | 1017.1 |
| 20260506154004 | 51 | 259 | 1.7 | 7.0 | 0.00 | 0.00 | 0.00 | 49 | 1017.1 |
| 20260506153601 | 51 | 301 | 0.9 | 7.0 | 0.00 | 0.00 | 0.00 | 49 | 1017.1 |
| 20260506153104 | 51 | 313 | 2.6 | 8.7 | 0.00 | 0.00 | 0.00 | 48 | 1017.1 |
| 20260506152555 | 52 | 286 | 4.3 | 8.7 | 0.00 | 0.00 | 0.00 | 47 | 1017.1 |
| 20260506152045 | 51 | 259 | 0.9 | 7.0 | 0.00 | 0.00 | 0.00 | 49 | 1017.0 |
| 20260506151553 | 52 | 290 | 1.7 | 5.2 | 0.00 | 0.00 | 0.00 | 48 | 1016.9 |
| 20260506151059 | 52 | 252 | 2.6 | 5.2 | 0.00 | 0.00 | 0.00 | 48 | 1016.8 |
| 20260506150502 | 52 | 250 | 1.7 | 6.1 | 0.00 | 0.00 | 0.00 | 48 | 1016.9 |
| 20260506150100 | 52 | 205 | 1.7 | 6.1 | 0.00 | 0.00 | 0.00 | 48 | 1016.7 |
| 20260506145500 | 52 | 284 | 0.9 | 4.3 | 0.00 | 0.00 | 0.00 | 49 | 1016.8 |
| 20260506145056 | 52 | 200 | 1.7 | 4.3 | 0.00 | 0.00 | 0.00 | 50 | 1016.9 |
| 20260506144609 | 51 | 211 | 2.6 | 4.3 | 0.00 | 0.00 | 0.00 | 52 | 1016.9 |
| 20260506144053 | 50 | 208 | 1.7 | 3.5 | 0.00 | 0.00 | 0.00 | 52 | 1016.9 |
| 20260506143543 | 49 | 235 | 0.9 | 3.5 | 0.00 | 0.00 | 0.00 | 54 | 1016.9 |
| 20260506143052 | 49 | 147 | 0.9 | 3.5 | 0.00 | 0.00 | 0.00 | 56 | 1016.8 |
| 20260506142557 | 48 | 161 | 1.7 | 3.5 | 0.00 | 0.00 | 0.00 | 57 | 1016.8 |
| 20260506142106 | 47 | 134 | 1.7 | 5.2 | 0.00 | 0.00 | 0.00 | 58 | 1016.8 |
| 20260506141506 | 47 | 163 | 2.6 | 6.1 | 0.00 | 0.00 | 0.00 | 59 | 1016.8 |
| 20260506141014 | 46 | 119 | 2.6 | 6.1 | 0.00 | 0.00 | 0.00 | 61 | 1016.8 |
| 20260506140520 | 46 | 154 | 4.3 | 6.1 | 0.00 | 0.00 | 0.00 | 62 | 1016.9 |
| 20260506140059 | 46 | 196 | 3.5 | 6.1 | 0.00 | 0.00 | 0.00 | 62 | 1016.9 |
| 20260506135501 | 46 | 127 | 3.5 | 6.1 | 0.00 | 0.00 | 0.00 | 62 | 1016.9 |
| 20260506135012 | 45 | 117 | 1.7 | 7.0 | 0.00 | 0.00 | 0.00 | 64 | 1016.7 |
| 20260506134515 | 45 | 117 | 2.6 | 6.1 | 0.00 | 0.00 | 0.00 | 65 | 1016.6 |
| 20260506134004 | 44 | 131 | 2.6 | 5.2 | 0.00 | 0.00 | 0.00 | 66 | 1016.7 |
| 20260506133512 | 44 | 131 | 2.6 | 5.2 | 0.00 | 0.00 | 0.00 | 68 | 1016.7 |
| 20260506133002 | 43 | 119 | 1.7 | 5.2 | 0.00 | 0.00 | 0.00 | 69 | 1016.6 |
| 20260506132557 | 43 | 127 | 1.7 | 5.2 | 0.00 | 0.00 | 0.00 | 70 | 1016.6 |
| 20260506132001 | 43 | 113 | 2.6 | 5.2 | 0.00 | 0.00 | 0.00 | 70 | 1016.4 |
| 20260506131558 | 43 | 112 | 1.7 | 3.5 | 0.00 | 0.00 | 0.00 | 71 | 1016.5 |
| 20260506131103 | 43 | 110 | 1.7 | 2.6 | 0.00 | 0.00 | 0.00 | 71 | 1016.5 |
| 20260506130506 | 42 | 119 | 0.9 | 2.6 | 0.00 | 0.00 | 0.00 | 72 | 1016.3 |
| 20260506130017 | 42 | 113 | 1.7 | 2.6 | 0.00 | 0.00 | 0.00 | 72 | 1016.3 |
| 20260506125504 | 42 | 119 | 1.7 | 2.6 | 0.00 | 0.00 | 0.00 | 72 | 1016.2 |
| 20260506125011 | 42 | 119 | 0.9 | 2.6 | 0.00 | 0.00 | 0.00 | 73 | 1016.2 |
| 20260506124501 | 42 | 119 | 0.9 | 2.6 | 0.00 | 0.00 | 0.00 | 73 | 1016.2 |
| 20260506124007 | 41 | 116 | 0.9 | 2.6 | 0.00 | 0.00 | 0.00 | 73 | 1016.1 |
| 20260506123601 | 41 | 102 | 0.9 | 2.6 | 0.00 | 0.00 | 0.00 | 73 | 1016.1 |
| 20260506123052 | 41 | 126 | 0.9 | 1.7 | 0.00 | 0.00 | 0.00 | 74 | 1016.0 |
| 20260506122600 | 41 | 126 | 0.9 | 2.6 | 0.00 | 0.00 | 0.00 | 74 | 1015.9 |
| 20260506122050 | 41 | 126 | 0.9 | 2.6 | 0.00 | 0.00 | 0.00 | 74 | 1015.9 |
| 20260506121539 | 41 | 109 | 1.7 | 2.6 | 0.00 | 0.00 | 0.00 | 74 | 1015.9 |
| 20260506121046 | 41 | 109 | 0.9 | 1.7 | 0.00 | 0.00 | 0.00 | 74 | 1015.8 |
| 20260506120552 | 41 | 109 | 0.9 | 1.7 | 0.00 | 0.00 | 0.00 | 73 | 1015.8 |
| 20260506120115 | 41 | 109 | 0.0 | 1.7 | 0.00 | 0.00 | 0.00 | 73 | 1015.8 |
| 20260506115553 | 41 | 109 | 0.0 | 0.0 | 0.00 | 0.00 | 0.00 | 73 | 1015.9 |
| 20260506115059 | 41 | 109 | 0.0 | 0.0 | 0.00 | 0.00 | 0.00 | 73 | 1015.8 |
| 20260506114549 | 41 | 109 | 0.0 | 1.7 | 0.00 | 0.00 | 0.00 | 74 | 1015.8 |
| 20260506114038 | 40 | 109 | 0.0 | 1.7 | 0.00 | 0.00 | 0.00 | 74 | 1015.8 |
| 20260506113545 | 40 | 109 | 0.0 | 1.7 | 0.00 | 0.00 | 0.00 | 75 | 1015.8 |
| 20260506113036 | 40 | 109 | 0.9 | 1.7 | 0.00 | 0.00 | 0.00 | 75 | 1015.8 |
| 20260506112540 | 40 | 109 | 0.9 | 1.7 | 0.00 | 0.00 | 0.00 | 75 | 1015.7 |
| 20260506112046 | 40 | 109 | 1.7 | 1.7 | 0.00 | 0.00 | 0.00 | 74 | 1015.7 |
| 20260506111538 | 40 | 109 | 0.9 | 1.7 | 0.00 | 0.00 | 0.00 | 74 | 1015.6 |
| 20260506111048 | 40 | 109 | 0.9 | 2.6 | 0.00 | 0.00 | 0.00 | 74 | 1015.5 |
| 20260506110551 | 40 | 109 | 1.7 | 2.6 | 0.00 | 0.00 | 0.00 | 74 | 1015.4 |
| 20260506110100 | 40 | 109 | 1.7 | 2.6 | 0.00 | 0.00 | 0.00 | 74 | 1015.4 |
| 20260506105551 | 40 | 109 | 1.7 | 2.6 | 0.00 | 0.00 | 0.00 | 74 | 1015.4 |
| 20260506105102 | 40 | 109 | 1.7 | 2.6 | 0.00 | 0.00 | 0.00 | 72 | 1015.4 |
| 20260506104604 | 40 | 111 | 1.7 | 2.6 | 0.00 | 0.00 | 0.00 | 72 | 1015.3 |
| 20260506104014 | 41 | 126 | 1.7 | 2.6 | 0.00 | 0.00 | 0.00 | 72 | 1015.4 |
| 20260506103604 | 41 | 126 | 0.9 | 3.5 | 0.00 | 0.00 | 0.00 | 73 | 1015.3 |
| 20260506103006 | 41 | 126 | 1.7 | 3.5 | 0.00 | 0.00 | 0.00 | 73 | 1015.3 |
| 20260506102602 | 41 | 129 | 1.7 | 3.5 | 0.00 | 0.00 | 0.00 | 73 | 1015.3 |
| 20260506102006 | 41 | 132 | 1.7 | 3.5 | 0.00 | 0.00 | 0.00 | 73 | 1015.3 |
| 20260506101601 | 41 | 131 | 1.7 | 3.5 | 0.00 | 0.00 | 0.00 | 73 | 1015.3 |
| 20260506101002 | 41 | 111 | 1.7 | 3.5 | 0.00 | 0.00 | 0.00 | 73 | 1015.3 |
| 20260506100513 | 41 | 109 | 1.7 | 2.6 | 0.00 | 0.00 | 0.00 | 73 | 1015.3 |
| 20260506100105 | 41 | 112 | 1.7 | 3.5 | 0.00 | 0.00 | 0.00 | 73 | 1015.3 |
| 20260506095503 | 41 | 115 | 2.6 | 3.5 | 0.00 | 0.00 | 0.00 | 73 | 1015.2 |
| 20260506095057 | 41 | 126 | 1.7 | 3.5 | 0.00 | 0.00 | 0.00 | 72 | 1015.3 |
| 20260506094615 | 41 | 110 | 1.7 | 2.6 | 0.00 | 0.00 | 0.00 | 72 | 1015.4 |